This demonstration page uses our WeatherBlox Daily Observations layout. Learn more.

Left ArrowRight Arrow

39.29038, -76.61219

Hourly Observations for August 26, 2020

Temp ( °F °C ) Dew Point ( °F °C ) Humidity (%) Winds ( mph kmh ) Pressure ( in mb ) Visibility ( mi km ) Precip ( " mm )
12:54 am 00:54 Mostly Cloudy 74 23.3 66 18.9 76 76 WNW 9 15 29.93 1014 10 16 0.00 0.00
1:54 am 01:54 Mostly Cloudy 72 22.2 65 18.3 79 79 WNW 3 6 29.94 1014 10 16 0.00 0.00
2:54 am 02:54 Partly Cloudy 71 21.7 65 18.3 81 81 WNW 5 7 29.94 1014 10 16 0.00 0.00
3:54 am 03:54 Partly Cloudy 69 20.6 64 17.8 84 84 WNW 6 9 29.95 1014 10 16 0.00 0.00
4:54 am 04:54 Mostly Clear 68 20 62 16.7 81 81 WNW 5 7 29.95 1014 10 16 0.00 0.00
5:54 am 05:54 Mostly Clear 68 20 62 16.7 81 81 WNW 7 11 29.98 1015 10 16 0.00 0.00
6:54 am 06:54 Partly Cloudy 67 19.4 62 16.7 84 84 W 6 9 30.00 1016 10 16 0.00 0.00
7:54 am 07:54 Mostly Sunny 71 21.7 64 17.8 79 79 W 6 9 30.01 1016 10 16 0.00 0.00
8:54 am 08:54 Mostly Sunny 75 23.9 63 17.2 66 66 WNW 8 13 30.02 1017 10 16 0.00 0.00
9:54 am 09:54 Mostly Sunny 79 26.1 60 15.6 52 52 NW 8 13 30.03 1017 10 16 0.00 0.00
10:54 am 10:54 Mostly Sunny 81 27.2 59 15 47 47 NNW 8 13 30.03 1017 10 16 0.00 0.00
11:54 am 11:54 Partly Cloudy 82 27.8 59 15 46 46 N 10 17 30.02 1017 10 16 0.00 0.00
12:54 pm 12:54 Mostly Sunny 84 28.9 61 16.1 46 46 NW 8 13 30.01 1016 10 16 0.00 0.00
1:54 pm 13:54 Partly Cloudy 86 30 62 16.7 45 45 VRB 3 6 29.98 1015 10 16 0.00 0.00
2:54 pm 14:54 Mostly Cloudy 86 30 61 16.1 43 43 WSW 6 9 29.97 1015 10 16 0.00 0.00
3:54 pm 15:54 Mostly Cloudy 86 30 63 17.2 46 46 W 13 20 29.96 1015 10 16 0.00 0.00
4:54 pm 16:54 Partly Cloudy 85 29.4 62 16.7 46 46 WSW 13 20 29.94 1014 10 16 0.00 0.00
5:54 pm 17:54 Partly Cloudy 86 30 61 16.1 43 43 WSW 10 17 29.93 1013 10 16 0.00 0.00
6:54 pm 18:54 Mostly Sunny 83 28.3 62 16.7 49 49 WSW 7 11 29.92 1013 10 16 0.00 0.00
7:54 pm 19:54 Mostly Clear 82 27.8 62 16.7 51 51 WSW 7 11 29.93 1013 10 16 0.00 0.00
8:54 pm 20:54 Mostly Clear 80 26.7 63 17.2 56 56 WSW 6 9 29.93 1014 10 16 0.00 0.00
9:54 pm 21:54 Mostly Clear 79 26.1 64 17.8 60 60 WSW 5 7 29.94 1014 10 16 0.00 0.00
10:54 pm 22:54 Partly Cloudy 79 26.1 64 17.8 60 60 SW 6 9 29.93 1014 10 16 0.00 0.00
11:54 pm 23:54 Partly Cloudy 77 25 66 18.9 69 69 SW 6 9 29.93 1013 10 16 0.00 0.00

Powered by AerisWeather